Weather History for Grand Island, NE

Change the Weather History Date:

Wednesday, November 21, 2012

  Actual Average Record
Temperature  
Mean Temperature 57 °F 35 °F  
Max Temperature 74 °F 46 °F 74 °F (2012)
Min Temperature 39 °F 24 °F -4 °F (1964)
Degree Days  
Heating Degree Days 8 30  
Month to date heating degree days 418 516  
Since 1 July heating degree days 939 1039  
Cooling Degree Days 0 0  
Month to date cooling degree days 0 0  
Year to date cooling degree days 1507 1034  
Growing Degree Days 6 (Base 50)    
Moisture  
Dew Point 36 °F    
Average Humidity 54    
Maximum Humidity 85    
Minimum Humidity 23    
Precipitation  
Precipitation 0.00 in 0.03 in 0.91 in (1899)
Month to date precipitation 0.49 0.85  
Year to date precipitation 9.85 25.71  
Snow  
Snow 0.00 in 0.10 in 3.10 in (1898)
Month to date snowfall 0.0 1.9  
Since 1 July snowfall T 3.0  
Since 1 September snowfall T 3.0  
Snow Depth 0.00 in    
Sea Level Pressure  
Sea Level Pressure 29.93 in    
Wind  
Wind Speed 16 mph (SSW)    
Max Wind Speed 32 mph    
Max Gust Speed 40 mph    
Visibility 10 miles    
Events      
T = Trace of Precipitation, MM = Missing Value Source: NWS Daily Summary

Daily Weather History Graph

Daily Weather History Graph

Search for Another Location

Airport:

Trip Planner

Search our weather history database for the weather conditions in past years. The results will help you decide how hot, cold, wet, or windy it might be!

Date:

Astronomy

Nov. 21, 2012 Rise Set
Actual Time 7:28 AM CST 5:09 PM CST
Civil Twilight 6:58 AM CST 5:39 PM CST
Nautical Twilight 6:24 AM CST 6:13 PM CST
Astronomical Twilight 5:51 AM CST 6:46 PM CST
Moon 1:29 PM CST 12:46 AM CST
Length of Visible Light 10h 41m
Length of Day
9h 41m
First Quarter, 62% of the Moon is Illuminated
Nov 21
First Quarter
Nov 28
Full
Dec 6
Last Quarter
Dec 13
New
Dec 19
First Quarter

Hourly Weather History & Observations

Time (CST) Temp. Windchill Dew Point Humidity Pressure Visibility Wind Dir Wind Speed Gust Speed Precip Events Conditions
12:53 AM 50.0 °F - 36.0 °F 59% 30.08 in 10.0 mi SW 10.4 mph - N/A   Clear
1:53 AM 50.0 °F - 35.1 °F 57% 30.05 in 10.0 mi SSW 15.0 mph - N/A   Clear
2:53 AM 48.0 °F - 35.1 °F 61% 30.06 in 10.0 mi SSW 16.1 mph - N/A   Clear
3:53 AM 46.0 °F 40.6 °F 35.1 °F 66% 30.05 in 10.0 mi SSW 11.5 mph - N/A   Clear
4:53 AM 43.0 °F 37.7 °F 34.0 °F 71% 30.06 in 10.0 mi SW 9.2 mph - N/A   Clear
5:53 AM 42.1 °F 36.6 °F 35.1 °F 76% 30.06 in 10.0 mi South 9.2 mph - N/A   Clear
6:53 AM 41.0 °F 34.3 °F 35.1 °F 79% 30.05 in 10.0 mi South 11.5 mph - N/A   Clear
7:53 AM 39.9 °F 32.9 °F 35.1 °F 83% 30.05 in 10.0 mi South 11.5 mph - N/A   Clear
8:53 AM 48.0 °F - 37.9 °F 68% 30.05 in 10.0 mi SSW 12.7 mph - N/A   Clear
9:53 AM 55.0 °F - 39.0 °F 55% 30.02 in 10.0 mi SSW 19.6 mph 28.8 mph N/A   Clear
10:53 AM 61.0 °F - 39.0 °F 44% 29.99 in 10.0 mi SSW 23.0 mph 29.9 mph N/A   Clear
11:53 AM 66.0 °F - 37.9 °F 36% 29.94 in 10.0 mi SSW 20.7 mph 33.4 mph N/A   Clear
12:53 PM 69.1 °F - 37.9 °F 32% 29.90 in 10.0 mi South 26.5 mph 36.8 mph N/A   Clear
1:53 PM 71.1 °F - 37.9 °F 30% 29.86 in 10.0 mi South 25.3 mph 38.0 mph N/A   Clear
2:53 PM 73.0 °F - 37.0 °F 27% 29.84 in 10.0 mi SSW 20.7 mph 33.4 mph N/A   Clear
3:53 PM 73.0 °F - 33.1 °F 23% 29.83 in 10.0 mi SSW 20.7 mph 31.1 mph N/A   Clear
4:53 PM 69.1 °F - 35.1 °F 29% 29.83 in 10.0 mi South 16.1 mph - N/A   Clear
5:53 PM 64.9 °F - 35.1 °F 33% 29.83 in 10.0 mi South 13.8 mph - N/A   Clear
6:53 PM 59.0 °F - 36.0 °F 42% 29.84 in 10.0 mi South 10.4 mph - N/A   Clear
7:53 PM 55.9 °F - 36.0 °F 47% 29.83 in 10.0 mi South 13.8 mph - N/A   Clear
8:53 PM 57.9 °F - 35.1 °F 42% 29.81 in 10.0 mi South 13.8 mph - N/A   Clear
9:53 PM 53.1 °F - 35.1 °F 50% 29.79 in 10.0 mi South 13.8 mph - N/A   Clear
10:53 PM 55.9 °F - 37.9 °F 51% 29.76 in 10.0 mi South 15.0 mph - N/A   Clear
11:53 PM 57.0 °F - 37.9 °F 49% 29.75 in 10.0 mi SSW 13.8 mph - N/A   Clear